Regional Weather Roundup
Issued by NWS

Home | Current Version | Previous Version | Text Only | Print | Product List | Glossary On
Versions: 1 2 3 4 5 6 7 8 9 10 11 12 13 14 15 16 17 18 19 20 21 22 23 24 25 26 27 28 29 30 31 32 33 34 35 36 37 38 39 40 41 42 43 44 45 46 47 48 49 50
769
ASUS44 KLIX 221301
RWRLA
LOUISIANA WEATHER ROUNDUP
NATIONAL WEATHER SERVICE NEW ORLEANS LA
800 AM CDT MON SEP 22 2014

NOTE: "FAIR" INDICATES FEW OR NO CLOUDS BELOW 12,000 FEET WITH NO
      SIGNIFICANT WEATHER AND/OR OBSTRUCTIONS TO VISIBILITY.
      SKY/WX - SKY CONDITION AND SIGNIFICANT WEATHER.
      TMP - AIR TEMPERATURE.    DP   - DEWPOINT TEMPERATURE.
      RH  - RELATIVE HUMIDITY.  PRES - PRESSURE.
      HX  - HEAT INDEX.         WCI  - WIND CHILL INDEX.

*  THESE STATIONS ARE NOT NWS OR FAA STATIONS AND ARE NOT UNDER
   NWS QUALITY CONTROL.

LAZ040-048-061>063-065-066-069-221400-
SOUTHEAST LOUISIANA

CITY           SKY/WX    TMP DP  RH WIND       PRES   REMARKS
N.O. AUDUBON     N/A     78  74  86 MISG        N/A
N.O. INTL ARPT MOSUNNY   77  73  87 CALM      30.03S
N.O. LAKEFRONT SUNNY     80  73  79 N6        30.03S
N.O. DOWNTOWN* FAIR      79  70  73 N3        30.03S
SLIDELL        SUNNY     70  67  90 N3        30.03S
BATON ROUGE    SUNNY     72  68  87 CALM      30.05R
BOOTHVILLE     SUNNY     81  75  82 N6        30.02S
BELLE CHASSE   MOSUNNY   74  69  85 CALM      30.02S
BOGALUSA*        N/A     69  65  86 CALM      30.06R
GALLIANO*      NOT AVBL
NEW ROADS*     FAIR      71  70  98 CALM      30.05S
GONZALES*      NOT AVBL
HAMMOND*       NOT AVBL
HOUMA*         SUNNY     73  68  83 N7        30.03R
PORT FOURCHON* SUNNY     79  73  83 N8        30.05S

$$

LAZ041-044-053-054-221400-
SOUTHWEST LOUISIANA

CITY           SKY/WX    TMP DP  RH WIND       PRES   REMARKS
LAKE CHARLES   SUNNY     74  71  91 CALM      30.05R
LAFAYETTE      SUNNY     75  70  84 CALM      30.05S
PATTERSON      SUNNY     72  70  94 N3        30.07R
SALT POINT       N/A     77  73  87 CALM      30.03S
NEW IBERIA     PTSUNNY   72  69  90 N3        30.06R
CHENAULT AIRPK SUNNY     73  70  88 CALM      30.06R

$$

LAZ027-028-221400-
CENTRAL LOUISIANA

CITY           SKY/WX    TMP DP  RH WIND       PRES   REMARKS
FORT POLK      SUNNY     73  67  81 NE9       30.08R
ALEXANDRIA INT MOSUNNY   72  65  78 N8        30.08R
ALEXANDRIA     SUNNY     73  65  75 N5        30.09R

$$

LAZ001-002-221400-
NORTHWEST LOUISIANA

CITY           SKY/WX    TMP DP  RH WIND       PRES   REMARKS
SHREVEPORT     MOSUNNY   72  54  53 NE14      30.14R
BARKSDALE AFB  SUNNY     70  55  59 N6        30.15R
DTN SHREVEPORT MOSUNNY   70  55  59 NE7       30.15R

$$

LAZ014-016-221400-
NORTHEAST LOUISIANA

CITY           SKY/WX    TMP DP  RH WIND       PRES   REMARKS
MONROE         SUNNY     69  56  62 N9        30.13R
TALLULAH       PTSUNNY   70  59  68 N10       30.11R

$$




USA.gov is the U.S. government's official web portal to all federal, state and local government web resources and services.